Temp
21 24 25 27 27 28 29 30 31 30 30 32 32 31 32 32 32 30 27 26 27 25 23 21 21 21 20 19 18 18 18 18 18 18 18 17 17 17 18 17 17 17 17 16 16 17 17 17 17
21 24 26 28 26 27 29 31 29 31 31 31 31 31 31 32 32 29 28 26 26 25 23 22 21 21 20 19 18 18 17 17 18 17 17 17 17 17 17 17 17 16 16 16 16 16 16 16 16
21 24 27 27 27 27 29 31 31 31 30 30 31 32 32 32 31 30 28 26 26 25 24 22 21 21 20 19 18 18 17 17 17 17 17 17 18 17 17 17 16 16 16 16 16 16 16 16 17
24 26 27 26 27 29 30 31 31 30 30 30 31 31 32 30 31 29 26 26 26 26 25 22 21 21 20 19 18 17 17 17 17 17 17 18 17 17 17 16 16 16 16 16 16 17 17 17 17
24 27 26 26 27 29 31 30 30 29 30 30 31 31 31 30 28 27 26 26 26 26 24 20 20 20 20 19 18 17 17 17 17 17 18 18 17 17 17 17 17 16 16 15 15 16 16 16 16
25 26 25 26 28 29 31 30 29 29 30 30 30 31 31 29 28 27 26 26 27 26 24 21 20 20 20 19 18 18 17 17 17 17 17 17 17 17 17 17 17 17 16 16 15 15 15 16 16
24 25 25 27 28 29 30 30 29 29 30 30 31 30 32 30 28 27 26 26 26 25 24 22 20 19 20 19 19 18 17 17 17 17 17 17 18 18 17 17 17 17 16 16 16 16 16 16 16
25 25 25 26 27 28 30 29 29 29 29 31 30 29 31 30 27 26 26 26 25 25 24 24 22 20 19 18 19 18 18 17 18 17 17 18 18 18 17 17 17 17 16 16 16 16 16 16 17
24 24 24 26 27 28 29 27 28 29 28 29 30 30 28 27 26 26 26 26 25 25 24 24 23 21 21 20 18 18 18 17 18 17 17 18 19 18 18 17 17 17 17 16 16 17 17 17 17
22 23 24 27 28 28 27 27 28 27 27 28 29 29 28 27 26 27 27 27 26 25 25 24 24 23 22 20 19 19 18 18 18 18 17 19 20 20 19 17 17 17 17 17 17 17 17 18 19
22 22 25 26 25 25 25 26 26 26 26 28 28 29 28 27 27 27 28 28 27 26 25 24 24 24 23 21 20 20 19 19 19 20 19 20 20 18 18 18 18 18 18 18 18 18 18 18 18
21 23 24 25 24 23 23 24 25 26 26 28 29 28 27 27 28 28 27 28 28 27 26 24 24 24 24 22 21 21 20 20 19 20 20 20 19 19 19 20 19 19 19 19 18 18 17 17 17
20 22 23 23 22 22 22 22 23 24 26 27 27 27 26 26 28 28 28 28 28 28 26 25 24 24 22 22 22 23 21 20 21 20 20 20 20 20 20 20 19 19 19 18 17 17 17 17 17
21 21 21 22 22 22 21 21 22 23 25 25 25 26 26 26 27 27 27 27 27 27 27 26 25 24 23 21 19 21 22 20 21 20 20 20 20 20 20 19 18 18 18 17 17 17 17 17 16
19 19 20 21 21 21 21 20 21 23 24 24 25 26 26 26 26 27 27 27 27 27 27 26 25 25 24 23 19 19 22 21 20 20 20 20 20 18 18 17 17 16 17 17 16 16 16 16 15
18 19 20 22 21 22 20 20 25 25 25 24 25 25 26 26 27 27 27 27 27 27 27 27 26 25 24 23 21 18 21 22 20 20 20 19 18 18 17 16 16 16 16 16 16 15 15 15 14
19 20 21 22 22 21 20 21 24 24 23 24 25 25 25 26 26 26 27 27 27 26 26 26 25 24 24 23 22 21 22 22 20 20 20 19 18 16 16 16 16 15 15 15 15 14 14 14 14
20 20 20 21 22 20 20 20 22 23 23 23 23 24 25 25 25 26 26 26 27 27 26 26 25 23 23 23 23 22 23 22 20 20 19 19 17 16 16 16 15 15 14 14 13 13 12 12 12
18 19 19 21 21 20 19 20 21 22 23 22 23 23 24 24 25 25 25 25 25 25 26 25 25 24 23 23 23 23 23 21 20 19 18 17 17 15 15 15 14 14 14 14 13 12 12 11 11
18 18 18 20 20 18 19 19 21 22 22 23 23 23 23 24 24 25 25 24 24 24 24 24 25 24 23 23 22 23 21 18 16 15 16 15 14 13 14 14 14 13 13 12 12 12 12 11 10
17 17 18 18 19 19 18 19 22 24 23 23 23 23 24 24 24 25 25 25 24 24 24 24 24 24 23 22 22 21 16 13 12 12 12 12 12 13 14 13 13 12 12 11 11 10 11 11 10
16 18 17 17 16 17 18 17 20 23 24 23 23 24 24 23 24 24 25 25 25 24 24 24 24 23 22 21 21 19 15 13 10 11 10 10 11 12 12 12 11 11 11 10 10 9 10 10 10
15 16 16 16 14 13 16 15 19 23 23 24 24 24 24 24 24 24 24 23 23 24 24 23 23 22 21 20 20 17 16 15 10 9 9 10 10 10 11 11 10 10 10 9 9 9 9 9 9
15 15 14 14 14 13 17 17 20 23 24 24 25 24 24 24 24 24 23 23 23 22 23 22 22 21 20 19 17 16 17 13 9 8 7 8 9 9 10 10 9 9 8 8 8 7 7 7 7
14 13 14 13 12 15 20 19 19 23 23 23 23 23 23 23 23 23 23 23 22 22 21 21 20 20 19 18 18 18 17 12 9 8 7 7 8 9 9 9 9 8 7 7 7 7 6 6 6
13 13 15 15 17 19 20 17 20 23 22 22 22 22 23 22 22 22 22 22 22 21 21 20 20 19 18 18 18 18 14 12 9 8 8 8 8 8 9 9 8 7 7 7 6 6 6 5 5
13 11 14 13 15 14 17 20 22 23 23 22 22 22 21 21 21 21 21 22 22 21 20 20 19 19 18 17 17 15 13 11 9 9 9 9 9 8 8 8 7 7 7 7 6 6 6 5 5
15 16 12 11 12 15 19 20 21 22 22 22 21 21 21 21 20 20 20 21 22 21 20 19 19 18 17 17 16 13 11 9 8 8 8 8 8 8 8 7 7 7 6 6 6 6 5 5 5
13 12 13 15 14 15 16 19 23 21 21 20 20 21 20 20 19 18 20 20 21 20 19 19 18 17 16 15 13 11 9 8 8 8 8 7 7 7 8 7 7 6 6 5 6 5 5 4 4
16 14 13 12 14 13 14 16 20 20 20 19 20 20 20 20 18 17 18 19 19 19 18 18 17 15 15 13 11 9 8 8 8 8 8 8 8 8 7 7 7 6 5 5 5 5 5 4 4
Height
780 778 777 773 783 769 767 755 742 750 748 735 736 742 739 735 738 756 749 751 752 756 761 764 769 772 775 778 780 783 784 786 787 789 791 792 793 795 796 797 798 798 799 799 800 800 801 802 803
780 777 775 768 784 777 760 738 754 746 737 738 739 739 743 741 731 743 748 752 754 757 762 766 769 772 775 779 781 783 786 787 788 790 792 793 795 796 797 798 799 799 800 801 802 802 803 804 805
778 776 774 773 774 772 757 738 742 741 741 741 738 733 732 736 737 740 747 751 754 758 762 765 770 775 777 779 783 785 786 788 789 790 793 795 796 797 799 800 800 800 800 801 803 803 804 804 805
776 773 769 776 768 752 746 737 736 745 740 739 737 742 734 738 737 742 748 752 754 758 762 765 770 774 778 781 784 786 787 788 791 793 793 795 798 799 799 799 800 801 802 802 803 804 805 805 806
774 764 772 768 761 748 736 738 739 746 742 741 739 740 736 739 743 745 749 752 754 758 762 767 771 775 777 781 784 786 789 790 791 793 796 796 797 799 800 801 801 801 802 803 805 805 806 806 806
769 762 771 767 753 742 734 737 743 745 741 740 744 740 736 740 743 746 749 752 755 759 763 767 772 775 778 781 784 786 788 791 792 794 795 797 798 798 800 801 802 803 803 804 805 806 806 806 807
767 763 764 754 748 741 734 736 745 745 742 741 735 745 732 737 744 746 749 751 756 760 764 768 772 775 778 781 784 786 788 790 793 794 796 796 797 798 800 801 803 804 804 805 805 805 805 806 807
761 758 760 753 750 746 729 735 740 742 743 734 736 746 739 737 745 747 750 753 756 760 763 767 771 774 777 781 783 786 788 790 791 793 795 796 797 798 800 801 802 803 804 805 806 805 806 806 806
763 763 760 752 746 742 733 742 739 737 742 739 736 737 741 745 746 748 750 753 755 759 763 765 768 772 776 779 782 785 787 789 790 792 794 796 798 798 800 801 802 803 804 805 806 806 806 805 806
765 762 751 736 732 738 739 742 739 746 744 743 739 737 743 746 746 747 748 750 754 757 760 763 766 769 773 776 779 783 786 788 790 791 792 795 796 798 799 800 802 803 804 805 806 806 806 805 806
758 758 743 739 745 744 745 744 743 747 749 737 739 735 741 744 745 745 745 746 750 754 757 760 763 767 770 774 776 780 783 785 788 789 792 793 795 797 799 800 801 802 804 804 805 806 806 807 807
761 751 746 742 746 753 755 747 747 744 743 734 734 735 739 743 742 743 744 743 744 748 753 757 760 764 767 772 775 777 779 782 785 787 790 791 794 796 797 799 801 802 803 804 805 806 807 807 806
760 756 747 749 751 755 754 752 749 744 739 738 737 738 741 743 740 740 742 743 743 745 749 754 757 760 765 768 771 773 777 779 782 785 788 790 793 794 795 797 799 801 803 804 806 805 806 807 806
754 756 753 751 753 753 755 749 750 743 737 738 738 737 737 739 739 738 739 741 742 743 746 749 753 756 760 764 768 771 773 777 778 782 786 788 791 792 794 796 797 799 801 802 805 806 806 806 805
763 765 755 749 750 750 748 749 743 734 734 733 731 731 732 733 734 735 735 736 739 740 743 745 749 752 755 759 763 767 770 773 775 780 783 786 788 790 792 794 795 798 800 801 803 804 806 806 804
766 759 757 735 743 742 749 743 720 722 724 727 725 725 725 725 725 727 730 731 734 736 738 741 745 748 751 755 759 763 766 768 774 777 780 782 785 787 790 791 794 797 799 801 802 803 805 804 804
758 752 745 738 737 743 746 736 719 722 725 722 719 718 718 717 718 720 722 724 727 731 734 737 741 744 747 751 755 759 761 764 769 774 777 780 782 783 787 790 792 796 798 799 801 802 803 804 804
744 750 745 743 738 744 743 735 726 722 723 722 719 716 713 712 713 715 716 718 720 723 728 731 735 739 742 745 749 753 756 760 765 769 773 778 781 783 785 788 792 795 797 799 800 802 803 803 803
753 751 748 742 739 744 739 731 724 718 714 714 714 712 709 707 706 708 712 714 716 717 720 725 728 732 736 739 742 746 750 756 761 767 770 775 779 782 784 787 791 793 797 798 800 802 803 803 802
754 755 751 744 741 750 739 723 717 710 702 702 702 701 700 700 700 701 703 707 709 711 714 718 721 725 728 733 736 740 745 751 758 763 768 773 777 779 783 786 789 792 797 797 799 801 803 803 803
758 757 753 751 745 744 740 714 692 681 686 688 687 687 690 693 693 694 696 698 702 704 707 711 714 717 721 726 732 738 740 748 756 762 765 770 772 776 782 787 788 791 796 796 798 800 802 803 805
759 749 754 756 760 753 745 732 701 687 680 680 681 681 684 686 688 688 688 688 692 696 699 702 707 712 716 722 726 730 734 743 751 759 765 768 772 776 781 786 788 792 794 796 798 800 801 803 804
760 758 760 760 766 771 752 759 690 678 679 674 672 675 676 677 680 682 683 686 688 689 693 698 701 705 710 717 721 728 736 744 749 755 761 766 770 776 781 784 787 791 793 795 797 799 800 802 804
761 763 765 765 768 764 732 732 685 675 668 668 661 671 675 675 676 678 680 682 683 686 688 691 697 701 705 711 719 725 731 738 745 751 757 762 769 774 781 784 787 791 792 795 797 798 800 801 802
765 769 764 765 769 742 707 711 695 670 670 673 674 672 671 673 674 673 674 675 677 680 684 687 693 697 702 708 714 722 728 736 741 746 753 760 767 773 777 782 790 791 791 794 796 798 799 800 801
763 765 754 747 728 714 705 711 685 663 668 669 670 671 669 671 673 672 669 668 670 674 678 682 691 695 698 705 711 719 727 734 740 745 751 758 766 773 777 782 789 789 792 793 795 796 798 798 800
760 770 757 761 749 744 709 682 665 659 660 662 664 665 670 671 673 673 669 662 663 666 673 678 686 692 696 703 709 718 728 734 738 745 752 758 765 774 779 782 787 789 791 793 793 795 797 798 799
748 747 768 773 759 729 684 673 668 658 657 657 664 666 666 667 671 672 666 659 657 663 668 677 683 688 695 703 709 718 728 735 738 745 752 759 766 774 779 783 786 789 791 792 793 794 795 796 797
753 755 757 747 744 727 706 671 648 661 663 667 666 660 665 668 669 670 664 658 656 661 663 675 681 687 696 705 711 720 730 736 739 746 755 761 768 775 780 783 787 789 790 791 793 793 794 795 796
735 743 748 756 733 733 725 669 662 662 663 666 664 662 663 664 668 670 664 659 659 662 664 675 684 689 697 707 715 723 731 736 741 749 757 764 771 776 781 784 787 788 790 791 792 793 793 794 794
Wind_Speed
10 9 9 7 6 7 13 10 10 6 5 8 3 5 7 10 7 1 8 6 15 20 21 21 20 16 12 12 13 12 11 10 9 9 8 9 11 7 7 6 5 6 5 6 7 13 11 11 13
8 7 9 6 7 12 11 13 8 9 2 3 8 9 8 7 5 8 12 8 17 19 19 19 20 16 13 12 13 12 11 10 10 9 10 12 8 7 8 7 5 5 4 2 5 7 9 9 8
8 7 7 6 13 15 13 6 8 4 4 6 4 4 2 2 5 11 9 14 19 18 18 21 20 14 13 14 13 12 11 10 10 11 9 9 9 9 9 8 6 6 5 4 4 5 5 5 4
7 7 6 10 18 17 18 3 7 6 5 3 3 5 4 5 4 5 14 15 18 17 17 20 20 17 13 14 13 12 12 11 11 12 13 14 11 10 10 8 7 8 8 7 5 4 2 2 4
13 8 11 15 22 21 9 11 5 7 3 6 2 9 1 6 8 9 13 14 17 17 17 18 20 17 15 14 13 12 11 11 13 13 11 10 9 9 8 6 7 8 9 9 7 6 5 4 5
8 9 12 17 21 19 17 10 9 11 9 7 7 9 2 9 8 9 12 12 14 16 16 17 19 17 14 14 12 11 10 10 11 11 9 7 6 8 7 5 5 6 7 7 6 4 3 3 3
15 11 17 20 18 18 16 9 11 13 15 12 7 8 6 9 6 10 12 12 13 14 15 17 17 17 15 14 12 11 10 10 10 11 10 7 5 6 10 6 4 5 5 4 3 3 3 2 1
12 14 21 19 19 21 14 7 9 13 14 2 3 8 7 11 8 10 10 11 13 14 15 16 18 17 16 14 14 12 11 10 10 12 12 10 5 4 12 7 5 4 3 3 2 3 2 2 2
11 14 16 22 21 15 7 6 12 9 11 6 8 13 8 2 8 9 11 12 13 14 15 16 18 17 16 16 16 14 13 11 11 13 13 10 7 8 10 7 3 4 2 2 2 2 2 2 3
12 13 20 16 15 16 11 11 11 7 15 16 12 9 1 2 8 11 11 13 13 15 17 17 17 18 18 18 19 16 14 12 10 11 12 10 8 8 8 5 5 4 3 1 1 2 3 4 1
13 18 15 10 10 9 12 12 12 12 15 13 16 12 6 4 8 12 14 14 16 16 17 17 17 17 17 17 18 16 17 13 13 11 11 10 9 7 8 5 4 3 2 3 1 2 2 3 3
15 16 18 9 6 10 12 14 16 18 17 16 12 7 1 8 8 12 13 14 12 17 17 18 18 17 17 18 17 18 17 16 15 12 13 11 10 9 9 7 5 5 4 3 1 3 1 2 3
13 17 11 12 13 15 14 18 19 18 16 16 17 13 14 15 13 12 12 15 15 15 16 18 19 18 18 18 17 17 18 17 15 13 14 12 11 11 9 7 6 5 4 4 3 3 1 2 3
2 11 15 14 15 15 17 20 18 18 21 22 21 21 20 19 18 19 17 15 16 16 17 18 19 20 19 19 19 16 17 18 17 15 15 15 13 11 9 8 9 8 7 5 3 1 1 2 4
12 15 15 18 19 15 11 19 25 27 24 24 23 21 22 23 26 24 24 19 19 19 19 18 19 20 20 20 19 21 18 19 19 18 17 17 14 12 11 10 10 7 5 5 4 1 2 3 5
9 13 12 6 5 8 11 16 7 11 17 20 22 21 22 23 23 28 29 26 23 19 18 19 17 20 21 20 19 20 19 20 22 21 19 19 16 15 13 12 11 8 7 5 4 2 1 4 5
10 10 14 10 4 6 13 12 7 3 10 14 15 16 17 20 24 30 30 30 28 25 22 20 19 19 21 21 20 20 21 21 25 23 20 20 18 16 15 13 12 8 6 5 4 3 2 3 5
9 14 10 10 6 8 15 20 20 18 19 19 17 17 16 17 19 24 28 32 31 28 25 23 22 20 20 21 22 22 22 22 23 22 21 19 16 16 18 15 12 9 7 6 5 4 3 3 6
3 7 10 10 9 17 19 21 21 20 22 23 21 21 22 23 19 24 26 27 30 31 29 28 24 22 21 22 23 23 21 21 21 22 21 19 18 17 17 16 12 10 7 7 5 4 3 4 8
12 13 14 14 13 10 18 28 24 26 27 24 25 25 25 24 23 23 29 29 30 31 30 28 28 24 24 22 22 22 20 19 18 16 18 18 18 18 17 17 15 11 9 8 6 4 3 5 8
12 13 13 15 15 18 22 26 23 16 19 25 27 27 25 23 23 23 23 28 28 30 30 29 28 26 25 23 22 19 22 18 17 19 20 19 21 22 19 15 14 13 9 9 7 5 5 4 4
11 9 10 11 9 6 4 10 17 17 17 16 15 15 15 18 19 19 21 21 27 30 29 28 29 26 26 25 26 27 21 19 18 26 22 21 18 20 18 15 13 12 10 9 8 6 6 4 3
5 2 5 7 9 12 14 8 12 8 14 13 11 12 12 12 14 15 16 21 26 26 29 27 26 26 26 28 26 27 21 19 25 26 26 24 20 19 20 18 14 13 11 9 8 7 6 4 3
3 4 8 8 8 8 15 15 15 6 7 8 8 5 6 8 10 11 14 18 20 24 21 26 26 26 27 28 25 26 25 27 28 29 28 28 23 20 16 15 14 11 12 9 8 6 5 3 2
8 2 2 4 4 8 2 11 17 13 17 7 7 9 9 9 11 13 14 13 17 20 24 23 25 26 27 27 26 26 26 26 29 33 31 30 26 25 20 16 12 11 11 9 7 5 3 2 0
14 8 4 5 4 8 7 10 6 10 2 5 7 10 12 12 12 11 15 14 17 19 23 24 26 26 27 27 25 24 25 25 26 27 31 27 25 23 20 17 12 12 10 9 6 4 3 1 1
6 8 10 11 16 10 9 16 17 19 19 9 12 16 14 10 9 13 16 15 17 18 23 24 26 25 26 26 26 24 24 25 27 28 27 30 24 22 19 17 13 11 9 7 6 3 2 1 2
12 0 2 2 5 7 10 16 13 12 12 9 9 9 10 9 9 13 14 13 16 19 21 25 28 27 26 26 26 26 24 24 30 30 29 30 25 21 17 16 13 11 8 6 4 2 1 2 4
10 10 6 6 7 5 10 10 12 10 9 9 11 9 7 11 11 11 11 12 10 16 21 25 26 26 27 26 26 26 25 27 31 33 29 27 23 20 16 14 12 9 7 5 3 1 1 4 7
14 11 16 6 7 7 10 20 14 18 10 14 16 14 11 11 7 9 11 4 7 14 18 22 25 26 27 26 27 27 30 32 33 30 27 23 21 17 14 12 10 8 6 3 1 1 3 6 9
Wind_Direction
306 301 293 268 251 229 256 239 243 239 218 224 342 262 321 334 351 300 140 106 138 146 153 155 159 159 161 157 152 151 149 147 149 148 155 154 136 122 102 106 87 67 73 61 52 72 104 123 102
290 290 253 270 249 246 245 221 203 237 327 313 247 247 249 262 56 95 144 138 147 146 152 157 162 164 161 154 151 151 148 145 147 147 135 135 130 116 111 110 95 79 80 115 78 77 80 79 79
276 251 262 233 239 245 250 157 234 161 253 245 234 238 293 74 83 134 115 144 151 151 155 161 165 162 160 152 151 149 147 144 148 147 151 147 131 130 125 113 94 84 93 108 115 78 72 68 49
233 215 244 245 244 238 255 191 251 208 197 207 313 253 151 48 120 92 142 147 154 155 156 162 165 165 169 155 152 151 149 146 147 148 141 141 137 131 129 115 92 86 87 96 101 100 78 52 59
229 252 234 227 243 251 237 268 235 228 236 239 216 247 190 111 110 127 148 152 159 160 149 154 169 171 167 161 157 153 151 150 150 153 151 153 154 148 135 108 92 94 95 90 88 84 80 88 78
213 236 237 234 241 241 247 209 223 239 248 245 251 251 184 110 148 141 151 157 164 163 159 162 172 172 169 168 165 161 156 158 163 171 165 161 155 175 168 127 95 95 99 97 92 78 60 54 47
237 218 239 246 250 245 232 217 248 243 241 229 243 261 141 144 117 150 154 156 163 167 165 165 173 174 174 175 175 172 165 164 173 176 179 187 187 165 183 158 127 117 111 101 94 82 77 77 59
237 250 246 246 250 249 255 235 254 249 247 279 249 232 251 101 145 151 157 160 165 172 175 174 176 179 178 182 185 182 176 174 173 180 184 194 179 173 181 170 156 137 124 114 103 96 102 100 61
245 248 238 238 246 245 270 216 241 242 264 211 221 258 57 93 156 167 171 172 171 179 183 184 180 181 183 184 188 187 186 185 179 182 188 185 176 150 155 166 185 162 145 120 115 86 65 66 54
225 226 238 251 261 253 267 214 239 227 234 241 228 225 246 178 192 191 193 188 187 185 189 190 189 185 186 188 188 189 188 188 188 184 187 182 179 177 169 178 189 182 175 146 62 29 49 13 277
223 245 240 245 301 286 276 242 244 255 254 235 230 213 191 218 208 213 209 205 195 196 194 195 193 191 186 185 189 193 191 193 198 190 186 188 183 188 189 188 190 189 193 221 24 319 33 43 21
240 250 256 272 267 253 247 262 254 246 251 267 250 307 272 246 227 214 223 225 211 193 196 196 196 195 195 192 198 196 192 187 193 194 191 185 185 179 178 183 172 179 194 187 187 103 83 3 359
238 260 241 264 263 258 266 259 263 262 252 254 269 246 254 258 253 240 231 229 219 207 197 197 198 195 199 201 202 198 196 192 195 192 192 186 183 178 174 171 173 173 163 124 152 145 351 332 331
247 270 272 260 260 254 259 261 255 247 250 254 254 254 253 247 250 252 234 228 229 218 206 202 202 201 199 200 203 206 199 200 196 193 191 189 187 180 172 171 166 175 188 195 144 160 328 324 330
265 264 261 249 244 240 250 261 247 249 252 254 248 247 245 249 249 246 248 233 227 225 217 210 206 206 204 202 202 202 205 201 194 195 190 188 183 178 174 167 167 165 154 144 149 96 7 333 328
241 241 253 116 218 238 206 261 295 216 238 245 247 246 249 246 246 242 240 235 232 229 225 217 212 209 208 207 200 202 205 198 193 197 189 187 184 178 171 166 171 158 152 151 133 99 349 348 332
216 259 218 242 194 266 209 274 273 226 272 264 241 249 247 245 242 242 239 238 230 227 226 223 208 208 209 208 205 205 208 201 189 198 190 189 184 175 175 169 172 152 151 143 126 98 60 352 324
235 218 252 258 165 241 271 268 271 271 267 262 261 256 253 246 243 246 241 238 238 238 231 227 206 211 209 206 201 207 207 200 192 192 188 185 181 174 173 170 160 150 147 135 122 107 68 33 339
310 300 274 275 286 288 278 275 274 271 263 257 255 255 251 247 246 239 238 238 237 233 229 226 225 211 204 199 197 201 195 194 189 194 179 177 176 172 169 163 153 143 150 140 129 115 77 28 360
255 259 265 279 285 295 290 283 280 267 257 254 250 246 246 246 242 241 237 231 233 230 227 226 221 211 201 198 198 196 176 159 166 158 163 169 164 163 169 167 151 144 141 126 114 114 103 60 27
242 258 271 281 304 293 280 284 262 253 243 242 248 251 249 250 250 244 240 235 226 231 225 219 220 207 198 195 188 176 149 155 163 172 168 172 168 164 161 162 152 143 144 126 111 95 89 78 56
256 262 279 280 291 276 48 294 282 278 254 228 241 244 244 245 247 251 252 242 234 225 225 219 213 205 195 189 181 173 169 162 165 163 164 161 152 151 157 155 143 140 137 125 114 100 82 71 62
236 340 274 284 285 299 257 240 265 286 267 257 251 249 261 244 245 251 246 244 251 241 220 213 210 202 190 188 180 172 175 169 155 160 156 154 152 146 151 153 140 137 133 126 119 105 94 78 74
29 230 263 261 260 257 242 213 276 286 329 2 225 204 220 236 247 250 254 260 243 244 239 202 203 196 187 179 179 181 176 157 152 150 150 151 149 141 144 144 138 137 130 125 118 109 103 99 88
191 215 249 226 209 251 272 215 240 276 298 256 241 229 255 276 280 265 257 245 237 230 232 203 200 193 182 182 183 185 170 165 160 156 152 150 148 149 144 138 143 136 131 127 121 128 119 104 102
205 205 238 268 249 309 318 250 237 244 216 240 255 267 268 283 275 303 286 237 237 221 220 198 202 190 179 180 178 173 160 162 159 155 151 148 145 151 146 139 149 134 131 127 130 126 130 160 279
164 211 245 280 280 274 240 265 267 263 263 306 259 237 252 261 286 310 312 266 226 216 218 196 197 185 176 172 164 157 161 158 151 147 142 141 144 143 144 141 140 135 133 135 133 144 149 240 276
222 181 116 211 268 260 256 277 264 255 284 297 261 234 227 261 289 308 324 276 226 217 201 197 193 175 168 162 156 151 154 152 141 139 138 141 139 144 143 140 139 137 137 132 131 144 203 284 285
198 227 238 287 242 275 304 265 340 331 310 292 292 287 267 272 288 309 319 292 214 215 182 189 177 162 156 153 145 144 147 143 135 138 137 136 135 140 142 141 141 140 137 134 145 153 270 280 281
218 215 219 226 216 238 272 269 294 289 317 303 279 262 258 280 291 307 307 289 216 193 158 172 161 149 147 142 140 141 141 134 130 128 131 133 138 138 140 139 137 134 134 135 141 281 284 284 285